Index of /documents/NL.IMRO.0141.BP00105-0401/


../
NL.IMRO.0141.BP00105-0401.css                      30-Sep-2013 22:12               54482
NL.IMRO.0141.BP00105-0401.gml                      30-Sep-2013 22:12             2558907
NL.IMRO.0141.BP00105-0401_Index.html               30-Sep-2013 22:12                9700
RotekstTemplate.css                                30-Sep-2013 22:12                2534
g_NL.IMRO.0141.BP00105-0401.xml                    30-Sep-2013 22:12               17822
manifest.xml                                       30-Sep-2013 22:12               43919
manifest.xml.20131126_000604.dossier_change.xml    25-Nov-2013 23:06               40465
r_NL.IMRO.0141.BP00105-0401_0001Regels.html        30-Sep-2013 22:12              377108
r_NL.IMRO.0141.BP00105-0401_0002Inleidenderegel..> 30-Sep-2013 22:12               32073
r_NL.IMRO.0141.BP00105-0401_0003Begrippen.html     30-Sep-2013 22:12               28471
r_NL.IMRO.0141.BP00105-0401_0004Wijzevanmeten.html 30-Sep-2013 22:12                6008
r_NL.IMRO.0141.BP00105-0401_0005Bestemmingsrege..> 30-Sep-2013 22:12              317930
r_NL.IMRO.0141.BP00105-0401_0006Bedrijf.html       30-Sep-2013 22:12               20418
r_NL.IMRO.0141.BP00105-0401_0007Centrum1.html      30-Sep-2013 22:12               18209
r_NL.IMRO.0141.BP00105-0401_0008Centrum2.html      30-Sep-2013 22:12               18380
r_NL.IMRO.0141.BP00105-0401_0009Centrum3.html      30-Sep-2013 22:12               22415
r_NL.IMRO.0141.BP00105-0401_0010Dienstverlening..> 30-Sep-2013 22:12               18494
r_NL.IMRO.0141.BP00105-0401_0011Gemengd1.html      30-Sep-2013 22:12               11794
r_NL.IMRO.0141.BP00105-0401_0012Gemengd2.html      30-Sep-2013 22:12               20543
r_NL.IMRO.0141.BP00105-0401_0013Gemengd3.html      30-Sep-2013 22:12               11681
r_NL.IMRO.0141.BP00105-0401_0014Groen.html         30-Sep-2013 22:12               11269
r_NL.IMRO.0141.BP00105-0401_0015Horeca.html        30-Sep-2013 22:12               11595
r_NL.IMRO.0141.BP00105-0401_0016Kantoor.html       30-Sep-2013 22:12               11127
r_NL.IMRO.0141.BP00105-0401_0017Maatschappelijk..> 30-Sep-2013 22:12               12347
r_NL.IMRO.0141.BP00105-0401_0018Tuin.html          30-Sep-2013 22:12                8125
r_NL.IMRO.0141.BP00105-0401_0019Verkeer1.html      30-Sep-2013 22:12               11934
r_NL.IMRO.0141.BP00105-0401_0020Verkeer2.html      30-Sep-2013 22:12               12786
r_NL.IMRO.0141.BP00105-0401_0021Verkeer3.html      30-Sep-2013 22:12               11991
r_NL.IMRO.0141.BP00105-0401_0022VerkeerRailverk..> 30-Sep-2013 22:12               12809
r_NL.IMRO.0141.BP00105-0401_0023Water.html         30-Sep-2013 22:12                9210
r_NL.IMRO.0141.BP00105-0401_0024Wonen.html         30-Sep-2013 22:12               30048
r_NL.IMRO.0141.BP00105-0401_0025WonenGestapeldw..> 30-Sep-2013 22:12               20781
r_NL.IMRO.0141.BP00105-0401_0026LeidingRiool.html  30-Sep-2013 22:12               11327
r_NL.IMRO.0141.BP00105-0401_0027LeidingWater.html  30-Sep-2013 22:12               11488
r_NL.IMRO.0141.BP00105-0401_0028WaardeArcheolog..> 30-Sep-2013 22:12               12897
r_NL.IMRO.0141.BP00105-0401_0029WaardeArcheolog..> 30-Sep-2013 22:12               12460
r_NL.IMRO.0141.BP00105-0401_0030WaardeArcheolog..> 30-Sep-2013 22:12               11847
r_NL.IMRO.0141.BP00105-0401_0031WaardeBeschermd..> 30-Sep-2013 22:12                7879
r_NL.IMRO.0141.BP00105-0401_0032WaardeWaardevol..> 30-Sep-2013 22:12               13720
r_NL.IMRO.0141.BP00105-0401_0033Algemeneregels...> 30-Sep-2013 22:12               17394
r_NL.IMRO.0141.BP00105-0401_0034Antidubbeltelre..> 30-Sep-2013 22:12                3102
r_NL.IMRO.0141.BP00105-0401_0035Algemenegebruik..> 30-Sep-2013 22:12                3539
r_NL.IMRO.0141.BP00105-0401_0036Algemeneaanduid..> 30-Sep-2013 22:12                5236
r_NL.IMRO.0141.BP00105-0401_0037Algemeneafwijki..> 30-Sep-2013 22:12               11386
r_NL.IMRO.0141.BP00105-0401_0038Algemeneprocedu..> 30-Sep-2013 22:12                4556
r_NL.IMRO.0141.BP00105-0401_0039Overgangsenslot..> 30-Sep-2013 22:12                8344
r_NL.IMRO.0141.BP00105-0401_0040Overgangsrecht...> 30-Sep-2013 22:12                7654
r_NL.IMRO.0141.BP00105-0401_0041Slotregel.html     30-Sep-2013 22:12                3072
rb_NL.IMRO.0141.BP00105-0401_0043Bijlagebijdere..> 30-Sep-2013 22:12                3168
rb_NL.IMRO.0141.BP00105-0401_01.pdf                30-Sep-2013 22:12              110836
rb_NL.IMRO.0141.BP00105-0401_02.pdf                30-Sep-2013 22:12              700795
t_NL.IMRO.0141.BP00105-0401_0000Toelichting.pdf    30-Sep-2013 22:12            14443745
tb_NL.IMRO.0141.BP00105-0401_0042Bijlagebijdeto..> 30-Sep-2013 22:12                3446
tb_NL.IMRO.0141.BP00105-0401_01.pdf                30-Sep-2013 22:12              847325
tb_NL.IMRO.0141.BP00105-0401_02.pdf                30-Sep-2013 22:12             1232786
tb_NL.IMRO.0141.BP00105-0401_03.pdf                30-Sep-2013 22:12             1794574
vb_NL.IMRO.0141.BP00105-0401.pdf                   30-Sep-2013 22:12              125710